Regional Weather Roundup
Issued by NWS New Orleans/Baton Rouge, LA

Home | Current Version | Previous Version | Text Only | Print | Product List | Glossary On
Versions: 1 2 3 4 5 6 7 8 9 10 11 12 13 14 15 16 17 18 19 20 21 22 23 24 25 26 27 28 29 30 31 32 33 34 35 36 37 38 39 40 41 42 43 44 45 46 47 48 49 50
902
ASUS44 KLIX 020705
RWRLIX
NEW ORLEANS REGIONAL WEATHER ROUNDUP
NATIONAL WEATHER SERVICE NEW ORLEANS LA
200 AM CDT TUE SEP 02 2014

NOTE: "FAIR" INDICATES FEW OR NO CLOUDS BELOW 12,000 FEET WITH NO
      SIGNIFICANT WEATHER AND/OR OBSTRUCTIONS TO VISIBILITY.
      SKY/WX - SKY CONDITION AND SIGNIFICANT WEATHER.
      TMP - AIR TEMPERATURE.     DP    - DEWPOINT TEMPERATURE.
      RH  - RELATIVE HUMIDITY.   PRES  - PRESSURE.
      HI  - HEAT INDEX.          WCI   - WIND CHILL INDEX.

*  THESE STATIONS ARE NOT NWS OR FAA STATIONS AND ARE NOT UNDER
   NWS QUALITY CONTROL.

LAZ038-040-048-061>063-065>067-069-020800-
SOUTHEAST LOUISIANA

CITY           SKY/WX    TMP DP  RH WIND       PRES   REMARKS
N.O. AUDUBON     N/A     82  76  81 MISG        N/A
N.O. INTL ARPT PTCLDY    80  75  84 S6        30.00F
N.O. LAKEFRONT PTCLDY    79  76  90 SE5       30.01F
N.O. DOWNTOWN*   N/A     81  73  78 S5        30.01S
SLIDELL        PTCLDY    76  74  93 CALM      30.00F
BATON ROUGE    PTCLDY    76  74  93 NE3       30.00S
BOOTHVILLE     PTCLDY    82  79  90 SE5       30.01F
BELLE CHASSE   MOCLDY    78  74  87 CALM      30.00F
BOGALUSA*        N/A     78  74  86 CALM      30.04R
GALLIANO*      NOT AVBL
NEW ROADS*       N/A     77  76  96 SE3       30.00S
GONZALES*        N/A     76  76 100 CALM      30.00S
HAMMOND*       PTCLDY    77  73  88 CALM      30.03R
HOUMA*         PTCLDY    79  74  86 CALM      29.99F HAZE
PORT FOURCHON* PTSUNNY   84  77  79 S9        30.02S

$$

MSZ070-080>082-020800-
SOUTHERN MISSISSIPPI

CITY           SKY/WX    TMP DP  RH WIND       PRES   REMARKS
MCCOMB         PTCLDY    75  74  96 SE5       30.03R
GULFPORT       PTCLDY    82  75  79 S7        30.01F
BILOXI         PTCLDY    83  75  76 S13       30.01F
PASCAGOULA     PTCLDY    76  75  97 CALM      30.02F

$$

COASTAL OBSERVATIONS
LAKE AND NEARSHORE STATIONS

STATION/POSITION TIME  TEMP    WIND        PRES    WAVE
                       AIR SEA DIR/SP/G            HT/PER
                 (UTC) (F)     (DEG/KT/KT) (MB)    (FT/S)
PASCAGOULA       0700   85     160/  7/ 11 1016.0
WAVELAND YACHT   0700   83     180/  8/ 12 1015.7
GRAND ISLE       0700   84 85  180/  6/ 10 1016.6
SOUTHWEST PASS   0700   85 90  170/  8/ 10 1016.8
NEW CANAL        0700   80 81  170/  2/  4 1016.4
SHELL BEACH      0700   81 81  140/  6/  8 1016.1

OFFSHORE STATIONS

STATION/POSITION TIME  TEMP    WIND        PRES    WAVE
                       AIR SEA DIR/SP/G            HT/PER
                 (UTC) (F)     (DEG/KT/KT) (MB)    (FT/S)
64 S DAUPHIN ISL 0621   83 85  160/ 10/ 10 1016.8

$$




USA.gov is the U.S. government's official web portal to all federal, state and local government web resources and services.